User: anonymous   Login
Location: Domont
(49.0278°N, 2.3264°E)
Time: 14:58:57
(UTC+00:00)
Language:

UWE-3 - Orbit

View from above orbital plane
View from above orbital plane
View from above satellite
View from above satellite

Ground track
Ground track

The orbit data is extracted from the following two-line orbital elements,

1 39446U 13066AG  22176.86345444  .00001482  00000-0  19652-3 0  9999
2 39446  97.6857 140.5628 0070202  62.4962 298.3363 14.79589345461703
Epoch (UTC): 25 June 2022 20:43:22
Eccentricity: 0.0070202
inclination: 97.6857°
perigee height: 581 km
apogee height: 680 km
right ascension of ascending node: 140.5628°
argument of perigee: 62.4962°
revolutions per day: 14.79589345
mean anomaly at epoch: 298.3363°
orbit number at epoch: 46170

The dashed part of the orbit path shows where the satellite is in the earth's shadow,  

DLR